When you browse on this site, cookies collect data to enhance your experience and personalize the content and advertising you see.
Visit our Privacy Policy to learn more. By continuing to use the site, you agree to this use of cookies and data.
  • In Hungary
  • List of Countries
  • For 7 days
  • Water Temperature
  • Satellite Maps
  • Weather Map
  • News
  • Weather Widgets
  • user-avatar
    Login

    Hourly Weather Kiel

    Today, 22 July, Monday

    Time Temperature Precipitation Wind Pressure Humidity
    00:00 +13°C° 0 mm 3 mps 765 mmHg 96%
    01:00 +14°C° 0 mm 2 mps 765 mmHg 97%
    02:00 +13°C° 0 mm 3 mps 765 mmHg 97%
    03:00 +13°C° 0 mm 3 mps 765 mmHg 97%
    04:00 +12°C° 0 mm 3 mps 765 mmHg 96%
    05:00 +13°C° 0 mm 3 mps 765 mmHg 93%
    06:00 +14°C° 0 mm 3 mps 765 mmHg 89%
    07:00 +15°C° 0 mm 4 mps 765 mmHg 86%
    08:00 +16°C° 0 mm 3 mps 765 mmHg 84%
    09:00 +17°C° 0 mm 3 mps 765 mmHg 81%
    10:00 +17°C° 0 mm 3 mps 765 mmHg 79%
    11:00 +17°C° 0.4 mm 3 mps 765 mmHg 84%
    12:00 +17°C° 0.4 mm 3 mps 764 mmHg 89%
    13:00 +16°C° 0.4 mm 3 mps 764 mmHg 93%
    14:00 +17°C° 0.2 mm 4 mps 764 mmHg 93%
    15:00 +17°C° 0.2 mm 4 mps 764 mmHg 92%
    16:00 +17°C° 0.2 mm 4 mps 764 mmHg 91%
    17:00 +18°C° 0 mm 4 mps 764 mmHg 90%
    18:00 +19°C° 0 mm 4 mps 764 mmHg 88%
    19:00 +20°C° 0 mm 5 mps 763 mmHg 87%
    20:00 +19°C° 0 mm 4 mps 764 mmHg 90%
    21:00 +18°C° 0 mm 4 mps 764 mmHg 93%
    22:00 +17°C° 0 mm 4 mps 764 mmHg 97%
    23:00 +17°C° 0 mm 4 mps 764 mmHg 97%

    Tomorrow, 23 July, Tuesday

    Time Temperature Precipitation Wind Pressure Humidity
    00:00 +15°C° 0 mm 4 mps 764 mmHg 97%
    01:00 +15°C° 0 mm 4 mps 764 mmHg 98%
    02:00 +15°C° 0 mm 4 mps 764 mmHg 98%
    03:00 +15°C° 0 mm 4 mps 764 mmHg 98%
    04:00 +15°C° 0 mm 4 mps 764 mmHg 98%
    05:00 +17°C° 0 mm 4 mps 764 mmHg 96%
    06:00 +18°C° 0 mm 4 mps 764 mmHg 94%
    07:00 +19°C° 0 mm 4 mps 764 mmHg 92%
    08:00 +21°C° 0 mm 4 mps 764 mmHg 86%
    09:00 +23°C° 0 mm 4 mps 764 mmHg 80%
    10:00 +26°C° 0 mm 4 mps 764 mmHg 73%
    11:00 +26°C° 0 mm 4 mps 764 mmHg 70%
    12:00 +27°C° 0 mm 4 mps 764 mmHg 67%
    13:00 +28°C° 0 mm 4 mps 764 mmHg 64%
    14:00 +28°C° 0 mm 4 mps 764 mmHg 64%
    15:00 +28°C° 0 mm 4 mps 764 mmHg 63%
    16:00 +28°C° 0 mm 4 mps 764 mmHg 63%
    17:00 +27°C° 0 mm 3 mps 764 mmHg 67%
    18:00 +26°C° 0 mm 3 mps 763 mmHg 72%
    19:00 +25°C° 0 mm 2 mps 763 mmHg 76%
    20:00 +23°C° 0 mm 2 mps 763 mmHg 81%
    21:00 +20°C° 0 mm 2 mps 764 mmHg 85%
    22:00 +19°C° 0 mm 1 mps 764 mmHg 89%
    23:00 +19°C° 0 mm 1 mps 764 mmHg 89%

    Day after tomorrow, 24 July, Wednesday

    Time Temperature Precipitation Wind Pressure Humidity
    00:00 +18°C° 0 mm 1 mps 764 mmHg 89%
    01:00 +18°C° 0 mm 1 mps 763 mmHg 89%
    02:00 +18°C° 0 mm 1 mps 763 mmHg 89%
    03:00 +16°C° 0 mm 1 mps 763 mmHg 89%
    04:00 +16°C° 0 mm 1 mps 763 mmHg 89%
    05:00 +18°C° 0 mm 1 mps 763 mmHg 86%
    06:00 +20°C° 0 mm 1 mps 763 mmHg 83%
    07:00 +21°C° 0 mm 1 mps 763 mmHg 80%
    08:00 +23°C° 0 mm 2 mps 763 mmHg 74%
    09:00 +25°C° 0 mm 2 mps 763 mmHg 69%
    10:00 +26°C° 0 mm 2 mps 763 mmHg 63%
    11:00 +27°C° 0 mm 2 mps 763 mmHg 60%
    12:00 +28°C° 0 mm 3 mps 762 mmHg 57%
    13:00 +29°C° 0 mm 3 mps 762 mmHg 54%
    14:00 +29°C° 0 mm 3 mps 762 mmHg 55%
    15:00 +29°C° 0 mm 3 mps 762 mmHg 56%
    16:00 +29°C° 0 mm 4 mps 762 mmHg 58%
    17:00 +28°C° 0 mm 4 mps 762 mmHg 63%
    18:00 +27°C° 0 mm 4 mps 762 mmHg 69%
    19:00 +25°C° 0 mm 4 mps 761 mmHg 74%
    20:00 +23°C° 0 mm 4 mps 762 mmHg 77%
    21:00 +22°C° 0 mm 4 mps 762 mmHg 79%
    22:00 +21°C° 0 mm 4 mps 762 mmHg 81%
    23:00 +20°C° 0 mm 4 mps 762 mmHg 81%

    25 July, Thursday

    Time Temperature Precipitation Wind Pressure Humidity
    00:00 +20°C° 0 mm 4 mps 762 mmHg 81%
    01:00 +20°C° 0 mm 4 mps 762 mmHg 81%
    02:00 +20°C° 0 mm 4 mps 762 mmHg 83%
    03:00 +20°C° 0 mm 4 mps 762 mmHg 84%
    04:00 +19°C° 0 mm 3 mps 762 mmHg 85%
    05:00 +21°C° 0 mm 4 mps 762 mmHg 83%
    06:00 +22°C° 0 mm 4 mps 762 mmHg 80%
    07:00 +23°C° 0 mm 4 mps 762 mmHg 77%
    08:00 +26°C° 0 mm 4 mps 763 mmHg 73%
    09:00 +27°C° 0 mm 4 mps 763 mmHg 69%
    10:00 +29°C° 0 mm 4 mps 763 mmHg 64%
    11:00 +30°C° 0 mm 4 mps 763 mmHg 61%
    12:00 +32°C° 0 mm 5 mps 763 mmHg 59%
    13:00 +32°C° 0 mm 5 mps 763 mmHg 56%
    14:00 +32°C° 0 mm 5 mps 762 mmHg 57%
    15:00 +32°C° 0 mm 6 mps 762 mmHg 58%
    16:00 +32°C° 0 mm 6 mps 762 mmHg 59%
    17:00 +29°C° 0 mm 6 mps 762 mmHg 63%
    18:00 +28°C° 0 mm 6 mps 762 mmHg 67%
    19:00 +27°C° 0 mm 6 mps 762 mmHg 70%
    20:00 +24°C° 0 mm 6 mps 762 mmHg 70%
    21:00 +23°C° 0 mm 6 mps 762 mmHg 69%
    22:00 +22°C° 0 mm 6 mps 763 mmHg 68%
    23:00 +21°C° 0 mm 5 mps 762 mmHg 72%

    26 July, Friday

    Time Temperature Precipitation Wind Pressure Humidity
    00:00 +20°C° 0 mm 5 mps 762 mmHg 75%
    01:00 +19°C° 0 mm 4 mps 762 mmHg 79%
    02:00 +19°C° 0 mm 4 mps 762 mmHg 83%
    03:00 +19°C° 0 mm 4 mps 761 mmHg 88%
    04:00 +18°C° 0 mm 4 mps 761 mmHg 92%
    05:00 +20°C° 0 mm 4 mps 761 mmHg 88%
    06:00 +21°C° 0 mm 4 mps 761 mmHg 85%
    07:00 +22°C° 0 mm 5 mps 761 mmHg 81%
    08:00 +25°C° 0 mm 5 mps 761 mmHg 75%
    09:00 +27°C° 0 mm 6 mps 761 mmHg 69%
    10:00 +29°C° 0 mm 6 mps 760 mmHg 63%
    11:00 +29°C° 0 mm 6 mps 760 mmHg 60%
    12:00 +30°C° 0 mm 7 mps 760 mmHg 57%
    13:00 +30°C° 0 mm 7 mps 760 mmHg 55%
    14:00 +30°C° 0 mm 7 mps 759 mmHg 55%
    15:00 +30°C° 0 mm 7 mps 759 mmHg 55%
    16:00 +30°C° 0 mm 7 mps 759 mmHg 55%
    17:00 +29°C° 0 mm 6 mps 759 mmHg 59%
    18:00 +28°C° 0 mm 6 mps 759 mmHg 64%
    19:00 +27°C° 0 mm 6 mps 758 mmHg 68%
    20:00 +26°C° 0 mm 6 mps 758 mmHg 69%
    21:00 +24°C° 0 mm 6 mps 758 mmHg 70%
    22:00 +23°C° 0 mm 6 mps 758 mmHg 72%
    23:00 +23°C° 0 mm 6 mps 758 mmHg 71%

    27 July, Saturday

    Time Temperature Precipitation Wind Pressure Humidity
    00:00 +23°C° 0 mm 6 mps 758 mmHg 70%
    01:00 +23°C° 0 mm 5 mps 758 mmHg 69%
    02:00 +22°C° 0 mm 5 mps 758 mmHg 71%
    03:00 +22°C° 0 mm 5 mps 757 mmHg 72%
    04:00 +21°C° 0 mm 5 mps 757 mmHg 74%
    05:00 +22°C° 0 mm 5 mps 757 mmHg 74%
    06:00 +22°C° 0 mm 5 mps 757 mmHg 74%
    07:00 +23°C° 0 mm 5 mps 757 mmHg 73%
    08:00 +25°C° 0 mm 5 mps 757 mmHg 70%
    09:00 +27°C° 0 mm 5 mps 757 mmHg 67%
    10:00 +28°C° 0 mm 5 mps 758 mmHg 63%
    11:00 +29°C° 0 mm 5 mps 757 mmHg 59%
    12:00 +30°C° 0 mm 5 mps 757 mmHg 56%
    13:00 +32°C° 0 mm 5 mps 757 mmHg 52%
    14:00 +30°C° 0.2 mm 5 mps 757 mmHg 59%
    15:00 +29°C° 0.2 mm 5 mps 757 mmHg 66%
    16:00 +27°C° 0.2 mm 5 mps 757 mmHg 73%
    17:00 +25°C° 0.3 mm 5 mps 757 mmHg 78%
    18:00 +22°C° 0.3 mm 6 mps 758 mmHg 83%
    19:00 +21°C° 0.3 mm 6 mps 758 mmHg 87%
    20:00 +20°C° 0.9 mm 6 mps 758 mmHg 90%
    21:00 +19°C° 0.9 mm 5 mps 758 mmHg 92%
    22:00 +17°C° 0.9 mm 5 mps 758 mmHg 94%
    23:00 +16°C° 0.1 mm 5 mps 758 mmHg 95%
    Show more